Location: Unspecified
(0.0000°N, 0.0000°E)
Time: 01:07:24
(UTC+00:00)

Vanguard 1 - Visible Passes

Search period start: 30 May 2016 00:00
Search period end: 09 June 2016 00:00
Orbit: 650 x 3834 km, 34.2° (Epoch: 29 May)

Date Brightness Start Highest point End Pass type
(mag) Time Alt. Az. Time Alt. Az. Time Alt. Az.
31 May 13.8 18:18:15 10° WNW 18:30:05 18° NNW 18:39:16 10° N visible
01 Jun 13.7 18:45:00 10° NW 18:52:57 14° NNW 18:59:30 10° N visible
02 Jun 13.6 19:12:21 10° NNW 19:16:04 11° NNW 19:19:26 10° N visible
03 Jun 13.0 22:04:28 10° N 22:05:24 11° N 22:05:24 11° N visible
04 Jun 13.0 22:23:54 10° NNW 22:25:09 12° NNW 22:25:09 12° NNW visible
05 Jun 13.1 20:22:45 10° N 20:25:24 11° N 20:27:47 10° NNE visible
05 Jun 13.1 22:44:12 10° NNW 22:44:55 12° NNW 22:44:55 12° NNW visible
06 Jun 13.7 18:09:11 10° NW 18:18:13 14° NNW 18:25:40 10° NNE visible
06 Jun 12.9 20:42:47 10° NNW 20:48:05 13° N 20:51:59 11° NE visible
07 Jun 13.6 18:34:08 10° NNW 18:41:43 13° N 18:48:00 10° NNE visible
07 Jun 12.7 21:03:13 10° NNW 21:10:31 18° NNE 21:11:46 17° NNE visible
08 Jun 13.4 18:57:30 10° NNW 19:05:07 14° N 19:11:13 10° NNE visible
08 Jun 12.5 21:23:52 10° NNW 21:31:32 23° N 21:31:32 23° N visible
